Flag for U.S.A. Weather past 2 weeks in Independence, Missouri, U.S.A.

Now
34 °F

Light rain. Fog.


Feels Like: 28 °F
Forecast: 37 / 41 °F
Wind: 7 mph from Southeast

Location: Lee's Summit Municipal Airport

Current Time: Jan 31, 2015 at 8:50:44 AM

Latest Report: Jan 31, 2015 at 7:53 AM


Visibility: 6 mi

Pressure: 30.27 "Hg

Humidity: 92%

Dew point: 32 °F

Location of IndependenceLocation

Historic Weather in Independence — Graph

°F

Independence temperature yesterday

Maximum temperature yesterday: 41 °F (at 3:53 PM)
Minimum temperature yesterday: 23 °F (at 5:53 AM)
Average temperature yesterday: 32 °F

Past Weeks' High & Low Weather Summary

 TemperatureHumidityPressure
High73 °F (Jan 28, 2:53 PM)93% (Jan 24, 11:53 PM)30.60 "Hg (Jan 24, 11:53 PM)
Low22 °F (Jan 23, 4:53 AM)23% (Jan 19, 1:53 PM)29.63 "Hg (Jan 25, 3:53 AM)
Average42 °F59%30.09 "Hg
* Reported Jan 16 7:53 AM — Jan 31 7:53 AM, Independence, Weather by CustomWeather, © 2014

Note: Actual official high and low records may vary slightly from our data, if they occured in-between our weather recording intervals... More about our weather records

Advertising

Independence weather history for previous 24 hours

 ConditionsComfort  
Time TempWeatherWind HumidityBarometerVisibility
7:53 AM
Jan 31
34 °FLight rain. Fog.7 mph92%30.27 "Hg6 mi
6:53 AM34 °FLight rain. Overcast.No wind88%30.28 "Hg8 mi
5:53 AM34 °FLight rain. Overcast.No wind85%30.28 "Hg7 mi
4:53 AM35 °FLight rain. Overcast.No wind72%30.29 "Hg10 mi
3:53 AM37 °FOvercast.5 mph52%30.30 "Hg10 mi
2:53 AM36 °FMostly cloudy.7 mph52%30.32 "Hg10 mi
1:53 AM37 °FOvercast.9 mph50%30.34 "Hg10 mi
12:53 AM37 °FPassing clouds.8 mph52%30.34 "Hg10 mi
11:53 PM
Jan 30
36 °FClear.7 mph52%30.37 "Hg10 mi
10:53 PM35 °FClear.7 mph54%30.38 "Hg10 mi
9:53 PM35 °FClear.5 mph52%30.40 "Hg10 mi
8:53 PM35 °FClear.5 mph52%30.40 "Hg10 mi
7:53 PM36 °FClear.7 mph48%30.41 "Hg10 mi
6:53 PM37 °FClear.9 mph46%30.42 "Hg10 mi
5:53 PM38 °FClear.6 mph45%30.43 "Hg10 mi
4:53 PM39 °FSunny.5 mph43%30.45 "Hg10 mi
3:53 PM41 °FSunny.3 mph39%30.46 "Hg10 mi
2:53 PM40 °FSunny.No wind40%30.47 "Hg10 mi
1:53 PM38 °FSunny.6 mph43%30.50 "Hg10 mi
12:53 PM36 °FSunny.No wind48%30.53 "Hg10 mi
11:53 AM32 °FSunny.No wind64%30.57 "Hg10 mi
10:53 AM30 °FSunny.No wind69%30.60 "Hg10 mi
9:53 AM28 °FSunny.No wind78%30.58 "Hg10 mi
8:53 AM26 °FSunny.8 mph81%30.58 "Hg10 mi
Weather by CustomWeather, © 2014

See weather overviewHow to use our weather pages